SCP
0 0 0 0 0 0 0 0 0 0 0 0 0 0 0 0 0 0 0 0 0 0 0 0 0 0 0 0 0 0 0 0 0 0 0 0 0 0 0 0 0 0 0 0 0 0 0 0 0 0 0 0 0 0
0 0 0 0 0 0 0 0 0 0 0 0 0 0 0 0 0 0 0 0 0 0 0 0 0 0 0 0 0 0 0 0 0 0 0 0 0 0 0 0 0 0 0 0 0 0 0 0 0 0 0 0 0 0
0 0 0 0 0 0 0 0 0 0 0 0 0 0 0 0 0 0 0 0 0 0 0 0 0 0 0 0 0 0 0 0 0 0 0 0 0 0 0 0 0 0 0 0 0 0 0 0 0 0 0 0 0 0
0 0 0 0 0 0 0 0 0 0 0 0 0 0 0 0 0 0 0 0 0 0 0 0 0 0 0 0 0 0 0 0 0 0 0 0 0 0 0 0 0 0 0 0 0 0 0 0 0 0 0 0 0 0
0 0 0 0 0 0 0 0 0 0 0 0 0 0 0 0 0 0 0 0 0 0 0 0 0 0 0 0 0 0 0 0 0 0 0 0 0 0 0 0 0 0 0 0 0 0 0 0 0 0 0 0 0 0
0 0 0 0 0 0 0 0 0 0 0 0 0 0 0 0 0 0 0 0 0 0 0 0 0 0 0 0 0 0 0 0 0 0 0 0 0 0 0 0 0 0 0 0 0 0 0 0 0 0 0 0 0 0
0 0 0 0 0 0 0 0 0 0 0 0 0 0 0 0 0 0 0 0 0 0 0 0 0 0 0 0 0 0 0 0 0 0 0 0 0 0 0 0 0 0 0 0 0 0 0 0 0 0 0 0 0 0
0 0 0 0 0 0 0 0 0 0 0 0 0 0 0 0 0 0 0 0 0 0 0 0 0 0 0 0 0 0 0 0 0 0 0 0 0 0 0 0 0 0 0 0 0 0 0 0 0 0 0 0 0 0
0 0 0 0 0 0 0 0 0 0 0 0 0 0 0 0 0 0 0 0 0 0 0 0 0 0 0 0 0 0 0 0 0 0 0 0 0 0 0 0 0 0 0 0 0 0 0 0 0 0 0 0 0 0
0 0 0 0 0 0 0 0 0 0 0 0 0 0 0 0 0 0 0 0 0 0 0 0 0 0 0 0 0 0 0 0 0 0 0 0 0 0 0 0 0 0 0 0 0 0 0 0 0 0 0 0 0 0
0 0 0 0 0 0 0 0 0 0 0 0 0 0 0 0 0 0 0 0 0 0 0 0 0 0 0 0 0 0 0 0 0 0 0 0 0 0 0 0 0 0 -0 0 0 0 0 0 0 0 0 0 0 0
0 0 0 0 0 0 0 0 0 0 0 0 0 0 0 0 0 0 0 0 0 0 0 0 0 0 0 0 0 0 0 0 0 0 0 0 0 0 -0 -0 -0 -0 -0 0 0 0 0 0 0 0 0 0 0 -0
0 0 0 0 0 0 0 0 0 0 0 0 0 0 0 0 0 0 0 0 0 0 0 0 0 0 0 0 0 0 0 0 0 0 0 0 0 0 0 -0 -0 0 0 0 0 0 -0 0 0 0 0 0 -0 -0
0 0 0 0 0 0 0 0 0 0 0 0 0 0 0 0 0 0 0 0 0 0 0 0 0 0 0 0 0 0 0 0 0 0 0 0 0 0 0 0 -0 0 0 0 -0 -0 -0 0 0 0 0 -0 0 0
0 0 0 0 0 0 0 0 0 0 0 0 0 0 0 0 0 0 0 0 0 0 0 0 0 0 0 0 0 0 0 0 0 0 0 0 0 0 0 0 -0 0 0 0 0 0 -0 0 0 0 -0 -0 0 0
0 0 0 0 0 0 0 0 0 0 0 0 0 0 0 0 0 0 0 0 0 0 0 0 0 0 0 0 0 0 0 0 0 0 0 0 0 0 0 0 -0 0 0 0 0 0 -0 0 0 0 -0 -0 0 0
0 0 0 0 0 0 0 0 0 0 0 0 0 0 0 0 0 0 0 0 0 0 0 0 0 0 0 0 0 0 0 0 0 0 0 0 0 0 0 -0 -0 -0 -0 0 0 0 -0 0 0 0 -0 -0 0 0
0 0 0 0 0 0 0 0 0 0 0 0 0 0 0 0 0 0 0 0 0 0 0 0 0 0 0 0 0 0 0 0 0 0 0 0 0 0 0 -0 0 -0 -0 0 -0 -0 -0 -0 0 0 -0 0 0 0
0 0 0 0 0 0 0 0 0 0 0 0 0 0 0 0 0 0 0 0 0 0 0 0 0 0 0 0 0 0 0 0 0 0 0 0 0 0 0 0 0 0 0 -0 0 -0 -0 -0 0 0 0 0 0 0
0 0 0 0 0 0 0 0 0 0 0 0 0 0 0 0 0 0 0 0 0 0 0 0 0 0 0 0 0 0 0 0 0 0 0 0 0 0 0 0 0 0 -0 0 0 0 0 -0 -0 -0 0 0 0 0
0 0 0 0 0 0 0 0 0 0 0 0 0 0 0 0 0 0 0 0 0 0 0 0 0 0 0 0 0 0 0 0 0 0 0 0 0 0 0 0 0 0 0 0 0 -0 0 0 0 -0 -0 0 0 0
0 0 0 0 0 0 0 0 0 0 0 0 0 0 0 0 0 0 0 0 0 0 0 0 0 0 0 0 0 0 0 0 0 0 0 0 0 0 0 0 0 0 0 0 0 -0 -0 0 0 -0 0 0 -0 -0
0 0 0 0 0 0 0 0 0 0 0 0 0 0 0 0 0 0 0 0 0 0 0 0 0 0 0 0 0 0 0 0 0 0 0 -0 -0 -0 -0 -0 -0 0 0 0 0 0 -0 -0 -0 -0 0 -0 -0 0
0 0 0 0 0 0 0 0 0 0 0 0 0 0 0 0 0 0 0 0 0 0 0 0 0 0 0 0 0 0 0 0 0 0 -0 0 0 0 0 0 0 0 0 0 0 0 0 -0 -0 -0 0 0 0 0
0 0 0 0 0 0 0 0 0 0 0 -0 -0 0 0 0 0 0 0 0 0 0 0 0 0 0 0 0 0 0 0 0 0 0 0 0 0 0 0 0 0 0 0 0 0 0 -0 -0 -0 -0 0 0 0 0
0 0 0 0 0 0 0 0 -0 -0 -0 -0 0 0 0 0 0 0 0 0 0 0 0 0 0 0 0 0 0 0 0 0 0 0 0 0 0 0 0 0 0 0 0 0 0 0 -0 -0 -0 -0 -0 0 0 0
0 0 0 0 0 0 -0 -0 0 0 -0 0 0 0 0 0 0 0 0 0 0 0 0 0 0 0 0 0 0 0 0 0 0 0 0 0 0 0 0 0 0 0 0 0 0 0 0 -0 -0 -0 -0 0 0 0
0 0 -0 0 -0 -0 -0 -0 -0 0 0 0 0 0 0 0 0 0 0 0 0 0 0 0 0 0 0 0 0 0 0 0 0 0 0 0 0 0 0 0 0 0 0 0 0 0 0 -0 -0 -0 -0 -0 0 0
0 0 0 -0 -0 0 0 0 0 0 0 0 0 0 0 0 0 0 0 0 0 0 0 0 0 0 0 0 0 0 0 0 0 0 0 0 0 0 0 0 0 0 0 0 0 0 0 0 -0 -0 0 -0 0 0
-0 -0 0 0 0 -0 0 0 0 -0 0 0 0 0 0 0 0 0 0 0 0 0 0 0 0 0 0 0 0 0 0 0 0 0 0 0 0 0 0 0 0 0 0 0 0 0 0 0 0 0 0 0 0 0
-0 -0 0 -0 -0 -0 0 0 0 0 0 0 0 0 0 0 0 0 0 0 0 0 0 0 0 0 0 0 0 0 0 0 0 0 0 0 0 0 0 0 0 0 0 0 0 0 0 0 0 0 0 0 0 0
0 -0 -0 -0 -0 0 0 0 0 0 0 0 0 0 0 0 0 0 0 0 0 0 0 0 0 0 0 0 0 0 0 0 0 0 0 0 0 0 0 0 0 0 0 0 0 0 0 0 0 0 0 0 0 0
0 0 0 0 0 0 0 0 0 0 0 0 0 0 0 0 0 0 0 0 0 0 0 0 0 0 0 0 0 0 0 0 0 0 0 0 0 0 0 0 0 0 0 0 0 0 0 0 0 0 0 0 0 0
Wind_Speed_500mb
37 39 40 43 48 48 45 39 37 36 33 29 25 25 28 29 24 18 12 8 4 8 21 8 15 19 12 8 4 12 9 10 9 4 2 5 5 3 6 1 7 4 5 1 5 4 5 7 6 6 13 28 21 19
33 35 37 41 42 41 36 35 34 35 32 29 25 26 30 30 24 22 18 11 7 12 12 17 17 7 12 14 7 5 3 2 4 4 2 2 4 5 1 3 10 2 10 8 8 8 5 9 17 25 27 26 18 14
23 22 23 29 31 30 29 31 34 35 33 28 26 28 32 31 28 26 20 13 8 8 17 8 5 16 19 11 9 7 2 2 3 8 4 4 1 6 2 5 3 5 3 7 8 3 20 34 32 28 17 16 11 13
12 15 20 20 21 23 24 24 30 29 27 26 27 32 34 32 30 27 20 9 6 2 5 2 2 8 10 11 10 5 9 16 12 11 4 2 2 6 6 6 6 8 6 9 7 19 31 22 26 16 16 12 12 13
11 16 19 18 15 17 20 21 25 20 21 25 31 35 35 33 28 26 21 13 9 4 2 14 22 14 19 23 8 7 9 6 7 5 3 5 6 3 5 5 4 6 10 8 9 25 12 22 21 7 6 11 12 14
10 13 17 18 15 16 18 19 18 14 20 30 36 37 35 28 23 25 12 17 12 8 4 5 8 11 15 18 8 8 10 8 7 5 8 6 3 4 5 2 1 19 21 15 16 31 28 33 17 6 9 11 11 14
11 14 19 20 18 17 15 16 13 11 19 24 32 37 33 32 30 17 9 11 25 12 5 8 11 7 23 18 14 11 16 14 9 6 7 6 9 6 6 6 24 27 34 34 37 41 33 21 14 6 7 11 13 13
9 11 20 24 19 15 10 15 15 22 25 28 37 36 32 33 30 15 11 16 20 14 7 2 9 6 14 12 8 14 8 12 11 8 6 2 5 4 0 10 39 39 30 24 23 9 18 21 16 8 6 10 8 8
9 11 14 25 18 8 5 12 18 30 35 36 39 36 26 27 23 24 20 16 10 5 4 2 3 4 6 10 11 11 11 1 6 4 8 6 1 4 19 43 50 44 29 31 30 23 28 18 13 5 6 8 6 11
9 9 11 21 15 3 11 23 28 35 40 38 36 19 12 21 19 24 11 3 4 4 5 8 8 5 2 4 7 4 1 4 1 9 6 5 8 19 34 42 46 33 34 43 48 38 28 18 8 4 7 10 11 12
10 6 8 13 9 1 19 31 37 37 44 40 14 8 32 39 21 8 5 3 4 5 10 13 17 8 1 5 4 2 5 1 0 9 8 3 6 10 37 46 41 37 37 30 24 21 9 4 4 6 8 15 16 21
13 6 5 7 4 5 17 39 38 41 26 10 20 39 24 8 6 6 6 5 7 8 10 12 19 25 5 7 8 7 2 4 7 7 3 4 6 42 56 50 40 34 29 23 13 13 9 5 6 8 15 19 22 33
17 11 6 1 3 6 15 22 34 43 27 33 10 8 8 5 6 11 11 6 6 9 11 14 9 14 8 5 8 5 3 7 10 3 5 7 34 57 55 49 41 29 21 17 16 11 11 8 13 16 23 22 33 33
17 16 7 3 5 7 12 21 33 47 27 5 5 6 7 7 8 10 8 7 14 10 13 25 13 6 8 6 5 4 5 2 3 4 9 10 59 62 56 49 42 30 21 13 10 8 11 10 21 21 21 30 37 31
15 16 9 6 9 9 17 37 21 32 6 6 9 8 10 15 14 16 11 20 21 26 21 18 11 8 4 4 3 2 2 5 7 7 5 44 60 55 56 43 40 35 20 13 9 5 8 12 21 23 27 35 34 27
12 17 10 8 11 12 13 26 22 13 2 3 8 5 7 8 4 19 25 18 18 19 17 12 6 5 1 5 3 8 6 8 6 7 14 52 52 54 46 43 42 30 25 18 7 8 5 17 25 28 30 38 32 27
18 16 16 12 13 16 17 26 8 3 4 5 8 9 3 10 12 20 22 12 8 8 5 6 5 4 1 2 4 5 7 7 11 9 29 51 53 46 46 40 39 35 24 13 10 9 7 22 29 30 41 40 34 29
18 12 19 18 18 18 12 7 5 6 8 11 5 7 13 21 28 18 19 11 8 8 6 3 2 4 4 4 3 7 15 2 7 7 29 43 43 44 42 38 40 29 20 14 10 9 9 27 30 36 43 36 40 29
8 14 24 22 20 9 5 5 4 4 7 10 13 15 19 25 21 19 15 12 12 14 11 5 2 5 5 2 4 7 11 5 5 7 23 34 44 39 39 40 35 25 16 11 10 13 9 23 30 39 41 44 40 28
6 17 21 17 10 2 0 3 4 4 6 4 5 9 23 31 34 25 17 12 10 10 4 3 8 3 8 7 11 13 9 7 10 25 30 36 37 39 38 43 31 23 17 15 12 15 10 17 36 41 45 50 41 34
10 16 16 12 4 6 1 3 3 5 5 5 4 8 8 38 38 27 23 17 6 5 8 14 14 11 10 13 17 18 18 16 26 31 46 44 38 35 39 37 37 25 15 11 10 10 13 12 35 43 51 51 41 32
18 20 16 4 5 6 5 2 5 8 5 8 7 3 5 11 16 32 30 14 11 18 20 20 16 10 14 16 20 18 11 29 32 32 34 37 41 44 47 46 42 25 13 9 6 7 13 13 35 40 54 48 44 38
23 15 5 4 4 4 5 5 4 4 3 3 3 3 1 3 6 6 8 11 24 34 30 26 17 10 5 16 15 20 25 27 35 31 33 36 43 41 44 39 38 28 20 18 10 4 7 12 30 37 50 52 44 29
13 5 3 3 4 6 5 5 5 4 4 4 3 4 4 4 5 3 2 4 5 4 7 18 21 11 9 14 4 13 22 30 35 30 35 24 31 24 22 31 25 35 30 21 19 11 5 9 21 36 40 50 42 26
3 2 2 7 6 6 6 6 7 4 2 4 4 3 3 4 3 2 5 5 4 8 3 18 20 7 2 15 11 16 15 20 30 35 29 21 21 34 20 19 19 27 28 31 26 18 8 9 15 34 38 49 41 26
1 7 9 7 6 6 5 4 1 3 4 4 6 8 6 5 1 4 2 10 6 7 5 17 31 27 24 23 18 15 20 17 17 22 23 14 8 7 17 33 34 30 28 26 24 17 10 9 13 19 43 50 45 34
3 8 15 13 9 11 4 4 2 3 2 1 4 5 4 2 5 6 11 11 12 10 7 6 11 16 16 17 16 11 12 17 18 24 23 24 18 14 9 15 21 28 32 34 27 20 11 9 8 13 31 53 52 44
8 9 6 5 3 9 5 5 4 3 3 2 4 4 10 11 9 13 18 20 23 13 9 12 14 17 18 22 23 25 21 22 24 24 25 22 21 18 17 16 10 11 17 35 34 27 16 8 7 7 11 43 56 53
9 13 15 12 10 6 4 6 2 4 1 3 7 6 6 6 11 15 17 18 14 16 19 17 20 24 21 19 17 16 19 28 32 34 36 40 40 29 21 17 18 12 15 25 38 29 18 12 8 6 10 19 47 54
10 15 13 5 6 2 4 4 10 10 10 13 13 12 14 10 8 16 20 24 22 19 17 17 21 25 29 30 27 24 21 23 27 26 30 27 25 23 27 33 25 12 14 13 40 39 35 27 19 12 11 12 30 54
17 19 7 4 4 5 8 11 14 23 26 18 23 21 19 10 18 25 29 22 21 23 22 20 18 18 19 18 20 26 32 31 31 27 24 28 29 33 28 35 37 32 16 23 40 41 38 32 26 19 14 12 11 38
19 9 5 3 2 6 12 12 4 3 4 3 4 8 6 6 6 9 18 23 30 30 23 20 18 18 22 29 32 33 35 37 40 38 34 33 38 37 37 41 42 42 37 23 37 45 40 32 33 29 19 16 15 12
4 7 1 3 2 3 3 6 5 5 10 7 8 9 8 7 5 6 8 21 25 28 32 28 33 41 45 48 45 45 48 45 34 35 44 46 40 44 46 48 38 37 34 36 36 51 45 41 40 31 26 25 25 18
Wind_Direction_500mb
258 266 273 278 279 284 288 287 284 280 276 270 259 245 228 222 223 217 180 213 303 265 270 3 46 23 6 27 101 330 7 3 29 58 144 289 30 327 76 331 238 143 115 60 76 237 305 180 2 143 131 107 112 91
262 268 272 276 282 287 289 281 277 274 269 261 249 233 218 212 205 196 169 166 214 277 276 286 295 258 288 294 292 288 262 244 21 78 0 284 1 5 75 259 35 329 177 170 156 198 100 58 105 117 137 118 96 65
263 272 280 287 291 290 283 277 275 269 262 250 238 217 207 201 194 192 173 178 203 283 301 276 3 258 231 260 300 254 150 26 104 4 258 240 359 113 58 273 114 294 169 102 92 78 115 115 107 106 83 73 51 8
258 278 289 301 302 304 306 297 286 268 253 234 215 201 197 192 189 189 174 154 162 246 280 283 118 218 261 248 309 291 278 272 303 317 276 199 172 194 209 208 154 226 75 115 60 107 115 121 121 110 95 70 24 6
264 282 295 295 288 293 295 295 293 270 226 206 194 190 187 184 183 183 170 152 160 209 266 294 296 266 256 233 271 270 296 265 263 285 218 238 245 113 333 61 336 336 170 152 200 186 178 143 138 133 51 35 32 15
273 302 306 300 285 278 281 287 288 272 203 190 184 184 172 168 174 167 194 206 193 251 277 321 300 251 211 206 219 275 246 264 250 262 262 260 249 194 96 112 241 95 113 117 141 143 146 141 136 89 32 44 35 19
279 310 323 311 286 265 271 263 258 227 163 165 175 164 161 170 172 177 176 179 201 204 253 292 294 251 231 221 225 246 231 241 246 250 241 254 225 186 108 176 175 127 118 121 136 135 128 154 151 128 29 47 20 46
261 297 322 329 303 278 254 241 216 167 147 148 150 153 160 167 174 167 165 158 174 185 221 225 273 287 186 166 200 223 220 214 222 233 266 312 174 147 217 212 155 143 138 133 134 159 146 141 138 131 44 30 59 77
250 283 317 332 318 299 220 197 174 160 150 153 158 162 158 168 182 168 143 126 152 206 205 253 220 250 187 193 204 202 214 179 255 214 232 161 316 220 189 168 165 161 163 150 141 144 146 154 152 132 36 89 83 113
236 272 303 327 325 7 139 150 155 157 154 151 153 148 153 159 150 181 209 237 237 223 228 234 252 267 266 210 155 141 137 207 32 252 216 130 236 273 197 190 174 175 165 158 139 144 148 150 170 110 87 101 116 136
215 259 296 320 326 41 153 154 161 154 160 138 156 130 141 140 142 147 136 173 204 274 221 232 223 238 264 133 161 354 201 225 69 268 137 277 291 171 156 153 159 159 162 162 155 142 151 166 165 123 103 128 143 143
197 219 267 316 287 74 167 165 166 167 168 127 132 128 126 122 112 121 176 194 227 236 215 201 213 206 270 162 128 206 137 39 248 309 71 284 267 147 140 137 139 143 136 124 114 116 112 119 136 128 133 145 153 139
193 194 210 291 212 96 159 170 168 172 159 139 107 127 154 146 117 183 187 198 212 214 230 201 105 149 135 38 80 88 88 238 309 39 226 227 151 146 143 142 137 135 127 121 109 85 58 88 119 132 142 145 144 142
198 197 197 177 169 144 137 170 165 150 154 100 114 134 190 179 221 206 192 198 207 299 212 162 105 89 108 76 80 61 260 6 277 245 234 182 164 156 154 150 145 145 134 122 113 82 49 96 131 140 146 151 149 142
199 192 179 154 151 160 173 168 121 155 131 184 191 200 211 224 209 205 157 83 63 72 134 105 77 104 98 126 152 60 269 258 226 238 244 171 162 160 152 151 153 148 148 148 137 64 48 125 147 153 151 155 149 143
179 175 160 150 154 156 165 182 155 118 66 255 236 262 229 132 187 117 123 92 71 87 81 69 76 57 69 147 150 215 192 223 251 246 187 165 164 158 153 157 161 157 160 153 123 54 72 147 149 146 151 151 152 155
144 151 161 162 159 155 147 146 112 171 223 240 251 266 184 128 85 119 131 104 101 79 73 56 75 200 301 92 242 210 214 221 193 166 175 168 166 159 159 164 161 159 156 134 95 51 139 152 153 153 151 154 153 140
161 163 167 159 155 148 132 159 190 232 244 247 269 151 89 136 134 126 105 109 115 101 99 135 12 36 202 233 290 327 2 54 195 183 174 167 163 159 170 162 158 158 144 116 65 30 155 159 162 160 156 152 151 157
133 162 163 158 154 142 151 185 226 277 260 277 239 169 144 142 152 172 155 132 118 140 141 156 172 208 246 79 76 16 20 32 290 203 166 165 161 160 165 163 158 150 126 99 75 49 86 159 166 164 159 160 164 163
120 165 167 160 150 85 202 186 217 281 304 342 1 156 163 165 171 183 177 158 116 122 116 197 227 128 9 352 339 333 308 266 241 154 156 156 166 168 169 164 158 150 120 118 101 68 64 164 174 169 169 169 169 170
158 159 153 143 55 33 1 342 247 300 330 302 24 92 83 152 162 174 174 173 144 190 223 232 261 292 305 298 291 303 268 249 201 188 170 164 172 178 174 171 180 170 151 147 130 99 75 138 174 173 176 176 180 173
135 137 130 100 29 1 300 4 325 317 312 308 358 120 139 191 182 190 180 173 204 228 231 247 235 252 267 281 289 265 252 197 180 183 176 181 166 166 173 190 186 179 169 182 164 124 87 112 172 178 180 180 185 192
121 132 80 41 333 304 285 251 281 242 208 229 218 144 21 87 105 132 184 220 233 251 247 232 205 199 14 330 229 182 170 186 164 171 168 160 155 169 182 193 202 200 198 205 199 169 94 107 168 176 184 189 194 198
92 80 350 306 249 269 265 232 241 250 237 180 246 82 76 109 118 104 267 269 181 143 250 229 222 204 329 328 221 142 174 194 182 171 179 181 182 167 208 220 204 222 220 216 205 198 153 110 154 173 181 193 195 190
27 200 236 260 253 261 249 200 206 235 239 80 45 119 183 145 80 201 217 6 344 163 160 218 186 159 45 112 94 20 61 185 175 149 130 133 178 185 194 206 205 197 197 212 198 195 162 125 127 175 184 192 192 186
105 219 207 225 242 209 275 180 162 97 148 209 181 159 142 122 98 271 62 29 58 80 108 114 142 134 128 152 179 140 156 137 172 172 178 184 183 112 177 173 191 191 191 196 193 186 167 139 130 155 189 197 199 192
285 249 225 226 228 252 4 95 216 156 262 342 172 126 96 120 234 184 177 186 167 157 159 181 208 189 172 157 169 186 170 174 174 178 167 184 207 210 178 147 187 210 202 197 204 199 169 142 130 138 180 196 203 203
272 279 218 294 221 194 193 222 188 132 181 167 113 149 173 193 224 197 204 210 211 213 258 271 261 252 244 244 238 235 241 236 229 226 221 204 198 192 172 165 143 188 203 217 212 198 182 163 117 119 151 193 201 204
257 280 314 271 249 269 75 49 99 214 201 130 164 207 225 219 222 228 214 206 231 278 283 260 228 232 241 247 251 240 232 236 242 246 249 247 233 219 224 197 164 146 168 203 208 204 200 190 150 108 143 169 198 204
259 270 246 208 145 231 195 225 193 210 243 256 238 236 233 240 237 226 226 225 249 269 254 251 254 256 260 262 259 249 249 242 237 242 238 231 219 208 216 220 211 182 160 181 205 197 190 181 189 197 187 167 193 204
273 297 236 249 98 152 210 238 253 269 274 246 242 248 247 254 259 246 231 245 225 225 249 263 261 256 262 267 266 257 249 243 243 238 236 229 219 211 207 206 211 210 190 182 202 202 199 202 211 210 202 208 207 208
266 316 91 55 162 242 268 276 275 229 234 212 229 205 203 215 269 180 202 212 232 242 260 275 278 285 286 280 266 253 253 254 238 237 239 234 225 223 220 218 215 208 202 200 207 215 215 224 228 219 226 225 204 194
64 19 313 191 246 312 278 294 256 258 208 217 227 248 220 202 245 210 206 221 236 256 263 259 281 284 289 289 273 259 251 248 240 237 237 236 234 230 225 224 220 215 210 206 204 211 218 224 219 220 232 240 231 229
Wind_Speed_850mb
37 39 40 43 48 48 45 39 37 36 33 29 25 25 28 29 24 18 12 8 4 8 21 8 15 19 12 8 4 12 9 10 9 4 2 5 5 3 6 1 7 4 5 1 5 4 5 7 6 6 13 28 21 19
33 35 37 41 42 41 36 35 34 35 32 29 25 26 30 30 24 22 18 11 7 12 12 17 17 7 12 14 7 5 3 2 4 4 2 2 4 5 1 3 10 2 10 8 8 8 5 9 17 25 27 26 18 14
23 22 23 29 31 30 29 31 34 35 33 28 26 28 32 31 28 26 20 13 8 8 17 8 5 16 19 11 9 7 2 2 3 8 4 4 1 6 2 5 3 5 3 7 8 3 20 34 32 28 17 16 11 13
12 15 20 20 21 23 24 24 30 29 27 26 27 32 34 32 30 27 20 9 6 2 5 2 2 8 10 11 10 5 9 16 12 11 4 2 2 6 6 6 6 8 6 9 7 19 31 22 26 16 16 12 12 13
11 16 19 18 15 17 20 21 25 20 21 25 31 35 35 33 28 26 21 13 9 4 2 14 22 14 19 23 8 7 9 6 7 5 3 5 6 3 5 5 4 6 10 8 9 25 12 22 21 7 6 11 12 14
10 13 17 18 15 16 18 19 18 14 20 30 36 37 35 28 23 25 12 17 12 8 4 5 8 11 15 18 8 8 10 8 7 5 8 6 3 4 5 2 1 19 21 15 16 31 28 33 17 6 9 11 11 14
11 14 19 20 18 17 15 16 13 11 19 24 32 37 33 32 30 17 9 11 25 12 5 8 11 7 23 18 14 11 16 14 9 6 7 6 9 6 6 6 24 27 34 34 37 41 33 21 14 6 7 11 13 13
9 11 20 24 19 15 10 15 15 22 25 28 37 36 32 33 30 15 11 16 20 14 7 2 9 6 14 12 8 14 8 12 11 8 6 2 5 4 0 10 39 39 30 24 23 9 18 21 16 8 6 10 8 8
9 11 14 25 18 8 5 12 18 30 35 36 39 36 26 27 23 24 20 16 10 5 4 2 3 4 6 10 11 11 11 1 6 4 8 6 1 4 19 43 50 44 29 31 30 23 28 18 13 5 6 8 6 11
9 9 11 21 15 3 11 23 28 35 40 38 36 19 12 21 19 24 11 3 4 4 5 8 8 5 2 4 7 4 1 4 1 9 6 5 8 19 34 42 46 33 34 43 48 38 28 18 8 4 7 10 11 12
10 6 8 13 9 1 19 31 37 37 44 40 14 8 32 39 21 8 5 3 4 5 10 13 17 8 1 5 4 2 5 1 0 9 8 3 6 10 37 46 41 37 37 30 24 21 9 4 4 6 8 15 16 21
13 6 5 7 4 5 17 39 38 41 26 10 20 39 24 8 6 6 6 5 7 8 10 12 19 25 5 7 8 7 2 4 7 7 3 4 6 42 56 50 40 34 29 23 13 13 9 5 6 8 15 19 22 33
17 11 6 1 3 6 15 22 34 43 27 33 10 8 8 5 6 11 11 6 6 9 11 14 9 14 8 5 8 5 3 7 10 3 5 7 34 57 55 49 41 29 21 17 16 11 11 8 13 16 23 22 33 33
17 16 7 3 5 7 12 21 33 47 27 5 5 6 7 7 8 10 8 7 14 10 13 25 13 6 8 6 5 4 5 2 3 4 9 10 59 62 56 49 42 30 21 13 10 8 11 10 21 21 21 30 37 31
15 16 9 6 9 9 17 37 21 32 6 6 9 8 10 15 14 16 11 20 21 26 21 18 11 8 4 4 3 2 2 5 7 7 5 44 60 55 56 43 40 35 20 13 9 5 8 12 21 23 27 35 34 27
12 17 10 8 11 12 13 26 22 13 2 3 8 5 7 8 4 19 25 18 18 19 17 12 6 5 1 5 3 8 6 8 6 7 14 52 52 54 46 43 42 30 25 18 7 8 5 17 25 28 30 38 32 27
18 16 16 12 13 16 17 26 8 3 4 5 8 9 3 10 12 20 22 12 8 8 5 6 5 4 1 2 4 5 7 7 11 9 29 51 53 46 46 40 39 35 24 13 10 9 7 22 29 30 41 40 34 29
18 12 19 18 18 18 12 7 5 6 8 11 5 7 13 21 28 18 19 11 8 8 6 3 2 4 4 4 3 7 15 2 7 7 29 43 43 44 42 38 40 29 20 14 10 9 9 27 30 36 43 36 40 29
8 14 24 22 20 9 5 5 4 4 7 10 13 15 19 25 21 19 15 12 12 14 11 5 2 5 5 2 4 7 11 5 5 7 23 34 44 39 39 40 35 25 16 11 10 13 9 23 30 39 41 44 40 28
6 17 21 17 10 2 0 3 4 4 6 4 5 9 23 31 34 25 17 12 10 10 4 3 8 3 8 7 11 13 9 7 10 25 30 36 37 39 38 43 31 23 17 15 12 15 10 17 36 41 45 50 41 34
10 16 16 12 4 6 1 3 3 5 5 5 4 8 8 38 38 27 23 17 6 5 8 14 14 11 10 13 17 18 18 16 26 31 46 44 38 35 39 37 37 25 15 11 10 10 13 12 35 43 51 51 41 32
18 20 16 4 5 6 5 2 5 8 5 8 7 3 5 11 16 32 30 14 11 18 20 20 16 10 14 16 20 18 11 29 32 32 34 37 41 44 47 46 42 25 13 9 6 7 13 13 35 40 54 48 44 38
23 15 5 4 4 4 5 5 4 4 3 3 3 3 1 3 6 6 8 11 24 34 30 26 17 10 5 16 15 20 25 27 35 31 33 36 43 41 44 39 38 28 20 18 10 4 7 12 30 37 50 52 44 29
13 5 3 3 4 6 5 5 5 4 4 4 3 4 4 4 5 3 2 4 5 4 7 18 21 11 9 14 4 13 22 30 35 30 35 24 31 24 22 31 25 35 30 21 19 11 5 9 21 36 40 50 42 26
3 2 2 7 6 6 6 6 7 4 2 4 4 3 3 4 3 2 5 5 4 8 3 18 20 7 2 15 11 16 15 20 30 35 29 21 21 34 20 19 19 27 28 31 26 18 8 9 15 34 38 49 41 26
1 7 9 7 6 6 5 4 1 3 4 4 6 8 6 5 1 4 2 10 6 7 5 17 31 27 24 23 18 15 20 17 17 22 23 14 8 7 17 33 34 30 28 26 24 17 10 9 13 19 43 50 45 34
3 8 15 13 9 11 4 4 2 3 2 1 4 5 4 2 5 6 11 11 12 10 7 6 11 16 16 17 16 11 12 17 18 24 23 24 18 14 9 15 21 28 32 34 27 20 11 9 8 13 31 53 52 44
8 9 6 5 3 9 5 5 4 3 3 2 4 4 10 11 9 13 18 20 23 13 9 12 14 17 18 22 23 25 21 22 24 24 25 22 21 18 17 16 10 11 17 35 34 27 16 8 7 7 11 43 56 53
9 13 15 12 10 6 4 6 2 4 1 3 7 6 6 6 11 15 17 18 14 16 19 17 20 24 21 19 17 16 19 28 32 34 36 40 40 29 21 17 18 12 15 25 38 29 18 12 8 6 10 19 47 54
10 15 13 5 6 2 4 4 10 10 10 13 13 12 14 10 8 16 20 24 22 19 17 17 21 25 29 30 27 24 21 23 27 26 30 27 25 23 27 33 25 12 14 13 40 39 35 27 19 12 11 12 30 54
17 19 7 4 4 5 8 11 14 23 26 18 23 21 19 10 18 25 29 22 21 23 22 20 18 18 19 18 20 26 32 31 31 27 24 28 29 33 28 35 37 32 16 23 40 41 38 32 26 19 14 12 11 38
19 9 5 3 2 6 12 12 4 3 4 3 4 8 6 6 6 9 18 23 30 30 23 20 18 18 22 29 32 33 35 37 40 38 34 33 38 37 37 41 42 42 37 23 37 45 40 32 33 29 19 16 15 12
4 7 1 3 2 3 3 6 5 5 10 7 8 9 8 7 5 6 8 21 25 28 32 28 33 41 45 48 45 45 48 45 34 35 44 46 40 44 46 48 38 37 34 36 36 51 45 41 40 31 26 25 25 18
Wind_Direction_850mb
258 266 273 278 279 284 288 287 284 280 276 270 259 245 228 222 223 217 180 213 303 265 270 3 46 23 6 27 101 330 7 3 29 58 144 289 30 327 76 331 238 143 115 60 76 237 305 180 2 143 131 107 112 91
262 268 272 276 282 287 289 281 277 274 269 261 249 233 218 212 205 196 169 166 214 277 276 286 295 258 288 294 292 288 262 244 21 78 0 284 1 5 75 259 35 329 177 170 156 198 100 58 105 117 137 118 96 65
263 272 280 287 291 290 283 277 275 269 262 250 238 217 207 201 194 192 173 178 203 283 301 276 3 258 231 260 300 254 150 26 104 4 258 240 359 113 58 273 114 294 169 102 92 78 115 115 107 106 83 73 51 8
258 278 289 301 302 304 306 297 286 268 253 234 215 201 197 192 189 189 174 154 162 246 280 283 118 218 261 248 309 291 278 272 303 317 276 199 172 194 209 208 154 226 75 115 60 107 115 121 121 110 95 70 24 6
264 282 295 295 288 293 295 295 293 270 226 206 194 190 187 184 183 183 170 152 160 209 266 294 296 266 256 233 271 270 296 265 263 285 218 238 245 113 333 61 336 336 170 152 200 186 178 143 138 133 51 35 32 15
273 302 306 300 285 278 281 287 288 272 203 190 184 184 172 168 174 167 194 206 193 251 277 321 300 251 211 206 219 275 246 264 250 262 262 260 249 194 96 112 241 95 113 117 141 143 146 141 136 89 32 44 35 19
279 310 323 311 286 265 271 263 258 227 163 165 175 164 161 170 172 177 176 179 201 204 253 292 294 251 231 221 225 246 231 241 246 250 241 254 225 186 108 176 175 127 118 121 136 135 128 154 151 128 29 47 20 46
261 297 322 329 303 278 254 241 216 167 147 148 150 153 160 167 174 167 165 158 174 185 221 225 273 287 186 166 200 223 220 214 222 233 266 312 174 147 217 212 155 143 138 133 134 159 146 141 138 131 44 30 59 77
250 283 317 332 318 299 220 197 174 160 150 153 158 162 158 168 182 168 143 126 152 206 205 253 220 250 187 193 204 202 214 179 255 214 232 161 316 220 189 168 165 161 163 150 141 144 146 154 152 132 36 89 83 113
236 272 303 327 325 7 139 150 155 157 154 151 153 148 153 159 150 181 209 237 237 223 228 234 252 267 266 210 155 141 137 207 32 252 216 130 236 273 197 190 174 175 165 158 139 144 148 150 170 110 87 101 116 136
215 259 296 320 326 41 153 154 161 154 160 138 156 130 141 140 142 147 136 173 204 274 221 232 223 238 264 133 161 354 201 225 69 268 137 277 291 171 156 153 159 159 162 162 155 142 151 166 165 123 103 128 143 143
197 219 267 316 287 74 167 165 166 167 168 127 132 128 126 122 112 121 176 194 227 236 215 201 213 206 270 162 128 206 137 39 248 309 71 284 267 147 140 137 139 143 136 124 114 116 112 119 136 128 133 145 153 139
193 194 210 291 212 96 159 170 168 172 159 139 107 127 154 146 117 183 187 198 212 214 230 201 105 149 135 38 80 88 88 238 309 39 226 227 151 146 143 142 137 135 127 121 109 85 58 88 119 132 142 145 144 142
198 197 197 177 169 144 137 170 165 150 154 100 114 134 190 179 221 206 192 198 207 299 212 162 105 89 108 76 80 61 260 6 277 245 234 182 164 156 154 150 145 145 134 122 113 82 49 96 131 140 146 151 149 142
199 192 179 154 151 160 173 168 121 155 131 184 191 200 211 224 209 205 157 83 63 72 134 105 77 104 98 126 152 60 269 258 226 238 244 171 162 160 152 151 153 148 148 148 137 64 48 125 147 153 151 155 149 143
179 175 160 150 154 156 165 182 155 118 66 255 236 262 229 132 187 117 123 92 71 87 81 69 76 57 69 147 150 215 192 223 251 246 187 165 164 158 153 157 161 157 160 153 123 54 72 147 149 146 151 151 152 155
144 151 161 162 159 155 147 146 112 171 223 240 251 266 184 128 85 119 131 104 101 79 73 56 75 200 301 92 242 210 214 221 193 166 175 168 166 159 159 164 161 159 156 134 95 51 139 152 153 153 151 154 153 140
161 163 167 159 155 148 132 159 190 232 244 247 269 151 89 136 134 126 105 109 115 101 99 135 12 36 202 233 290 327 2 54 195 183 174 167 163 159 170 162 158 158 144 116 65 30 155 159 162 160 156 152 151 157
133 162 163 158 154 142 151 185 226 277 260 277 239 169 144 142 152 172 155 132 118 140 141 156 172 208 246 79 76 16 20 32 290 203 166 165 161 160 165 163 158 150 126 99 75 49 86 159 166 164 159 160 164 163
120 165 167 160 150 85 202 186 217 281 304 342 1 156 163 165 171 183 177 158 116 122 116 197 227 128 9 352 339 333 308 266 241 154 156 156 166 168 169 164 158 150 120 118 101 68 64 164 174 169 169 169 169 170
158 159 153 143 55 33 1 342 247 300 330 302 24 92 83 152 162 174 174 173 144 190 223 232 261 292 305 298 291 303 268 249 201 188 170 164 172 178 174 171 180 170 151 147 130 99 75 138 174 173 176 176 180 173
135 137 130 100 29 1 300 4 325 317 312 308 358 120 139 191 182 190 180 173 204 228 231 247 235 252 267 281 289 265 252 197 180 183 176 181 166 166 173 190 186 179 169 182 164 124 87 112 172 178 180 180 185 192
121 132 80 41 333 304 285 251 281 242 208 229 218 144 21 87 105 132 184 220 233 251 247 232 205 199 14 330 229 182 170 186 164 171 168 160 155 169 182 193 202 200 198 205 199 169 94 107 168 176 184 189 194 198
92 80 350 306 249 269 265 232 241 250 237 180 246 82 76 109 118 104 267 269 181 143 250 229 222 204 329 328 221 142 174 194 182 171 179 181 182 167 208 220 204 222 220 216 205 198 153 110 154 173 181 193 195 190
27 200 236 260 253 261 249 200 206 235 239 80 45 119 183 145 80 201 217 6 344 163 160 218 186 159 45 112 94 20 61 185 175 149 130 133 178 185 194 206 205 197 197 212 198 195 162 125 127 175 184 192 192 186
105 219 207 225 242 209 275 180 162 97 148 209 181 159 142 122 98 271 62 29 58 80 108 114 142 134 128 152 179 140 156 137 172 172 178 184 183 112 177 173 191 191 191 196 193 186 167 139 130 155 189 197 199 192
285 249 225 226 228 252 4 95 216 156 262 342 172 126 96 120 234 184 177 186 167 157 159 181 208 189 172 157 169 186 170 174 174 178 167 184 207 210 178 147 187 210 202 197 204 199 169 142 130 138 180 196 203 203
272 279 218 294 221 194 193 222 188 132 181 167 113 149 173 193 224 197 204 210 211 213 258 271 261 252 244 244 238 235 241 236 229 226 221 204 198 192 172 165 143 188 203 217 212 198 182 163 117 119 151 193 201 204
257 280 314 271 249 269 75 49 99 214 201 130 164 207 225 219 222 228 214 206 231 278 283 260 228 232 241 247 251 240 232 236 242 246 249 247 233 219 224 197 164 146 168 203 208 204 200 190 150 108 143 169 198 204
259 270 246 208 145 231 195 225 193 210 243 256 238 236 233 240 237 226 226 225 249 269 254 251 254 256 260 262 259 249 249 242 237 242 238 231 219 208 216 220 211 182 160 181 205 197 190 181 189 197 187 167 193 204
273 297 236 249 98 152 210 238 253 269 274 246 242 248 247 254 259 246 231 245 225 225 249 263 261 256 262 267 266 257 249 243 243 238 236 229 219 211 207 206 211 210 190 182 202 202 199 202 211 210 202 208 207 208
266 316 91 55 162 242 268 276 275 229 234 212 229 205 203 215 269 180 202 212 232 242 260 275 278 285 286 280 266 253 253 254 238 237 239 234 225 223 220 218 215 208 202 200 207 215 215 224 228 219 226 225 204 194
64 19 313 191 246 312 278 294 256 258 208 217 227 248 220 202 245 210 206 221 236 256 263 259 281 284 289 289 273 259 251 248 240 237 237 236 234 230 225 224 220 215 210 206 204 211 218 224 219 220 232 240 231 229